sat.trackr.live / text

‹ back to catalog

ZIYUAN 3-02 (ZY 3-02)

NORAD 41556 · 2016-033A

PAYLOAD ACTIVE UNKNOWN

§ Identity

Operator
Country
PRC
Launch date
2016-05-30
Launch site
TAISC
Launch vehicle
Mass (kg)
RCS (m²)
4.61

Purposes: earth_obs

External: N2YO · Heavens-Above · Gunter

§ Orbital elements

Epoch: 2026-05-25T04:03:43.123104Z

Period
94.66 min
Inclination
97.3837°
Eccentricity
0.0013049
Mean motion
15.21215303 rev/d
Perigee alt
493.2 km
Apogee alt
511.2 km
Semi-major
6,880.3 km
B*
2.2806e-4
RAAN
221.3842°
Arg perigee
16.9435°
Mean anomaly
343.2234°
Rev number
55,448

§ Raw data

ZIYUAN 3-02 (ZY 3-02)1 41556U 16033A   26145.16924911  .00005031  00000+0  22806-3 0  99942 41556  97.3837 221.3842 0013049  16.9435 343.2234 15.21215303554487

JSON: /api/v1/satellites/41556 · /tle

For live sub-satellite position, see the globe view (requires WebGL).

§ Visibility from observer

Set your observer location to see the next 7 days of passes ≥ 10°. The values pass through the URL so the page stays shareable.

No JS? Fill the form by hand. The geolocation button needs JavaScript.

§ Radio — SatNOGS DB

ModeDescriptionDownlinkUplink
BPSK S-band telemetry 2.201 GHz

1 transmitter · refreshed weekly from db.satnogs.org